1998-067SW

Last updated on Tue May 10 2022 00:02:04 GMT+0000 (Coordinated Universal Time)

1 49277U 98067SW 22129.50060252 .00078142 00000+0 74268-3 0 9996 2 49277 51.6315 159.2266 0002640 53.8345 306.2894 15.66161239 32594

Satellite not in orbit